CW2969 Weather Reports


time (UTC)temp
F
wind
direction
speed
knots
gust
knots
rain 1hr
in
rain 24hr
in
rain mn
in
humidity
%
barometer
mb
20260508025029 65 24 0.0 0.9 0.00 0.00 0.00 72 1014.0
20260508024529 65 24 0.0 1.7 0.00 0.00 0.00 72 1014.1
20260508024028 65 111 1.7 1.7 0.00 0.00 0.00 72 1013.9
20260508023529 65 111 0.9 1.7 0.00 0.00 0.00 72 1013.3
20260508022528 65 101 0.9 1.7 0.00 0.00 0.00 72 1012.9
20260508022029 65 74 0.9 1.7 0.00 0.00 0.00 72 1012.9
20260508021528 65 345 0.9 1.7 0.00 0.00 0.00 71 1012.9
20260508020028 65 131 0.0 1.7 0.00 0.00 0.00 70 1012.5
20260508015527 65 90 0.9 2.6 0.00 0.00 0.00 70 1012.4
20260508015027 66 111 1.7 3.5 0.00 0.00 0.00 70 1012.3
20260508014527 66 105 0.9 3.5 0.00 0.00 0.00 70 1012.5
20260508014027 66 146 1.7 5.2 0.00 0.00 0.00 69 1012.9
20260508012527 66 78 0.0 2.6 0.00 0.00 0.00 69 1012.9
20260508010527 66 115 0.9 2.6 0.00 0.00 0.00 68 1012.6
20260508010027 67 94 0.9 2.6 0.00 0.00 0.00 68 1012.8
20260508005026 67 265 2.6 6.1 0.00 0.00 0.00 67 1012.6
20260508004026 67 93 0.0 1.7 0.00 0.00 0.00 66 1013.2
20260508003526 67 58 0.0 1.7 0.00 0.00 0.00 66 1013.4
20260508003026 68 105 0.0 1.7 0.00 0.00 0.00 66 1013.5
20260508002526 68 88 1.7 1.7 0.00 0.00 0.00 66 1013.4
20260508002026 68 95 0.0 5.2 0.00 0.00 0.00 66 1013.6
20260508001526 68 95 2.6 5.2 0.00 0.00 0.00 65 1013.8
20260508000526 69 83 0.9 2.6 0.00 0.00 0.00 65 1013.9
20260507235526 69 100 0.9 1.7 0.00 0.00 0.00 65 1014.1
20260507235026 69 11 0.0 0.9 0.00 0.00 0.00 65 1014.0
20260507234026 70 112 0.0 3.5 0.00 0.00 0.00 64 1014.3
20260507233526 70 11 1.7 3.5 0.00 0.00 0.00 64 1014.4
20260507233026 70 346 0.0 1.7 0.00 0.00 0.00 65 1014.4
20260507232526 70 198 0.0 5.2 0.00 0.00 0.00 65 1014.3
20260507232025 70 71 1.7 5.2 0.00 0.00 0.00 65 1014.0
20260507231526 70 107 0.0 2.6 0.00 0.00 0.00 65 1014.0
20260507230525 70 93 0.0 3.5 0.00 0.00 0.00 64 1014.4
20260507230025 69 188 1.7 2.6 0.00 0.00 0.00 65 1014.2
20260507225525 69 314 0.9 3.5 0.00 0.00 0.00 65 1014.2
20260507225025 69 78 1.7 3.5 0.00 0.00 0.00 65 1014.4
20260507224525 69 163 0.9 3.5 0.00 0.00 0.00 65 1014.5
20260507224025 69 130 0.9 6.1 0.00 0.00 0.00 65 1014.4
20260507223525 69 123 3.5 6.1 0.00 0.00 0.00 66 1014.6
20260507223025 69 111 0.0 2.6 0.00 0.00 0.00 66 1014.8
20260507222525 69 133 0.0 3.5 0.00 0.00 0.00 67 1014.9
20260507221525 69 113 0.0 3.5 0.00 0.00 0.00 67 1014.8
20260507221025 69 78 0.9 3.5 0.00 0.00 0.00 67 1014.7
20260507220525 68 118 0.9 2.6 0.00 0.00 0.00 66 1014.7
20260507220024 68 23 0.0 7.8 0.00 0.00 0.00 67 1014.8
20260507215524 68 5 7.8 7.8 0.00 0.00 0.00 67 1014.8
20260507214524 68 344 1.7 4.3 0.00 0.00 0.00 67 1014.4
20260507214024 68 12 0.9 3.5 0.00 0.00 0.00 67 1014.5
20260507213525 68 360 1.7 3.5 0.00 0.00 0.00 68 1014.6
20260507212524 68 355 1.7 2.6 0.00 0.00 0.00 68 1014.6
20260507212024 68 119 1.7 5.2 0.00 0.00 0.00 68 1014.9
20260507211524 68 89 3.5 5.2 0.00 0.00 0.00 68 1014.8
20260507211024 68 118 0.9 4.3 0.00 0.00 0.00 68 1014.9
20260507210524 68 88 0.9 5.2 0.00 0.00 0.00 68 1014.8
20260507210024 68 55 5.2 6.1 0.00 0.00 0.00 69 1014.6
20260507205524 68 20 3.5 6.1 0.00 0.00 0.00 69 1014.6
20260507205024 68 105 0.0 7.0 0.00 0.00 0.00 69 1014.5
20260507204524 68 336 4.3 7.0 0.00 0.00 0.00 70 1014.6
20260507204024 67 107 2.6 5.2 0.00 0.00 0.00 70 1014.8
20260507203524 67 93 0.9 6.1 0.00 0.00 0.00 71 1015.1
20260507203023 67 178 1.7 7.0 0.00 0.00 0.00 71 1015.1
20260507202524 67 12 2.6 7.0 0.00 0.00 0.00 71 1015.1
20260507201523 67 121 0.9 5.2 0.00 0.00 0.00 71 1015.5
20260507200523 67 41 5.2 8.7 0.00 0.00 0.00 73 1015.1
20260507200023 67 338 7.0 7.0 0.00 0.00 0.00 73 1015.3
20260507195524 66 55 1.7 7.0 0.00 0.00 0.00 74 1015.3
20260507195023 66 283 0.9 7.0 0.00 0.00 0.00 74 1015.5
20260507193523 65 113 2.6 5.2 0.00 0.00 0.00 75 1015.7
20260507193023 65 340 2.6 5.2 0.00 0.00 0.00 76 1015.5
20260507192523 65 138 1.7 4.3 0.00 0.00 0.00 76 1015.3
20260507192023 65 348 3.5 3.5 0.00 0.00 0.00 75 1015.6
20260507191523 65 116 1.7 2.6 0.00 0.00 0.00 75 1015.9
20260507191023 65 95 0.9 2.6 0.00 0.00 0.00 74 1015.8
20260507190523 66 59 0.9 1.7 0.00 0.00 0.00 73 1015.9
20260507190023 66 348 0.9 2.6 0.00 0.00 0.00 74 1016.2
20260507185523 66 126 0.9 4.3 0.00 0.00 0.00 73 1016.2
20260507185023 66 337 2.6 4.3 0.00 0.00 0.00 74 1016.3
20260507184523 66 5 2.6 3.5 0.00 0.00 0.00 74 1016.3
20260507184023 66 53 0.9 7.0 0.00 0.00 0.00 74 1016.4
20260507183023 66 92 0.9 3.5 0.00 0.00 0.00 75 1016.6
20260507182523 65 151 0.0 7.0 0.00 0.00 0.00 75 1016.8
20260507182022 65 148 1.7 7.0 0.00 0.00 0.00 75 1016.8
20260507181523 65 155 1.7 4.3 0.00 0.00 0.00 75 1016.5
20260507180523 64 175 0.9 2.6 0.00 0.00 0.00 76 1016.0
20260507180022 64 118 0.9 6.1 0.00 0.00 0.00 76 1015.8
20260507175523 64 303 1.7 6.1 0.00 0.00 0.00 76 1015.8
20260507174522 63 15 1.7 2.6 0.00 0.00 0.00 77 1016.3
20260507174022 63 151 0.9 5.2 0.00 0.00 0.00 78 1016.3
20260507173522 62 107 1.7 5.2 0.00 0.00 0.00 78 1016.1
20260507173022 62 330 2.6 4.3 0.00 0.00 0.00 78 1016.3
20260507172522 62 298 4.3 4.3 0.00 0.00 0.00 79 1016.2
20260507172022 62 138 1.7 4.3 0.00 0.00 0.00 79 1015.9
20260507171522 62 113 3.5 4.3 0.00 0.00 0.00 79 1016.4
20260507171022 62 147 0.0 2.6 0.00 0.00 0.00 79 1017.0
20260507170522 62 59 0.9 3.5 0.00 0.00 0.00 80 1017.2
20260507170022 62 126 1.7 3.5 0.00 0.00 0.00 80 1017.1
20260507165522 62 151 0.0 6.1 0.00 0.00 0.00 80 1017.2
20260507164522 62 89 1.7 3.5 0.00 0.00 0.00 80 1017.1
20260507164021 62 133 3.5 3.5 0.00 0.00 0.00 80 1017.3
20260507163522 62 355 2.6 7.0 0.00 0.00 0.00 81 1017.3
20260507163021 62 19 1.7 7.0 0.00 0.00 0.00 80 1016.9
20260507162522 62 34 5.2 5.2 0.00 0.00 0.00 80 1016.8
20260507162021 62 155 1.7 6.1 0.00 0.00 0.00 80 1017.3
20260507160522 62 160 3.5 7.8 0.00 0.00 0.00 80 1016.9
20260507160022 62 316 3.5 7.8 0.00 0.00 0.00 80 1016.7
20260507155521 62 315 2.6 7.0 0.00 0.00 0.00 80 1017.0
20260507155021 62 336 1.7 7.0 0.00 0.00 0.00 80 1017.0
20260507154021 62 334 2.6 4.3 0.00 0.00 0.00 80 1017.1
20260507153521 62 40 0.0 3.5 0.00 0.00 0.00 81 1017.4
20260507153021 62 351 2.6 3.5 0.00 0.00 0.00 81 1017.4
20260507152521 62 96 1.7 9.6 0.00 0.00 0.00 81 1017.4
20260507151521 62 117 3.5 7.8 0.00 0.00 0.00 81 1017.3
20260507151021 62 94 1.7 3.5 0.00 0.00 0.00 81 1017.3
20260507150521 62 144 1.7 4.3 0.00 0.00 0.00 81 1017.3
20260507150020 62 360 1.7 7.8 0.00 0.00 0.00 81 1017.2
20260507145521 62 330 5.2 7.8 0.00 0.00 0.00 81 1017.3
20260507145020 62 316 4.3 9.6 0.00 0.00 0.00 81 1017.0
20260507144520 62 334 7.8 9.6 0.00 0.00 0.00 81 1017.0
20260507144020 62 102 2.6 9.6 0.00 0.00 0.00 81 1017.0
20260507143020 62 49 0.9 5.2 0.00 0.00 0.00 81 1017.1
20260507142520 62 336 4.3 5.2 0.00 0.00 0.00 81 1016.9
20260507142020 62 344 4.3 5.2 0.00 0.00 0.00 82 1017.2
20260507141520 62 78 0.0 2.6 0.00 0.00 0.00 82 1017.3
20260507141020 62 355 1.7 4.3 0.00 0.00 0.00 82 1016.8
20260507140520 62 340 4.3 5.2 0.00 0.00 0.00 82 1016.5
20260507140020 62 321 2.6 8.7 0.00 0.00 0.00 82 1016.7
20260507135520 62 360 8.7 8.7 0.00 0.00 0.00 82 1017.1
20260507135020 62 138 2.6 7.8 0.00 0.00 0.00 82 1016.9
20260507134520 62 327 0.9 6.1 0.00 0.00 0.00 82 1016.8
20260507134019 62 27 2.6 6.1 0.00 0.00 0.00 82 1016.5
20260507132520 61 40 0.9 4.3 0.00 0.00 0.00 82 1016.2
20260507132019 61 355 1.7 5.2 0.00 0.00 0.00 82 1016.2
20260507131519 61 338 0.9 5.2 0.00 0.00 0.00 82 1016.0
20260507131020 61 348 1.7 5.2 0.00 0.00 0.00 82 1016.1
20260507130019 61 327 3.5 7.0 0.00 0.00 0.00 82 1016.4
20260507125519 61 337 0.0 7.0 0.00 0.00 0.00 82 1016.2
20260507125019 61 348 5.2 7.0 0.00 0.00 0.00 82 1016.2
20260507124519 61 102 3.5 7.0 0.00 0.00 0.00 82 1016.3
20260507124019 61 106 1.7 4.3 0.00 0.00 0.00 82 1016.2
20260507123019 61 25 0.9 3.5 0.00 0.00 0.00 82 1016.3
20260507122519 61 166 0.9 7.0 0.00 0.00 0.00 82 1016.0
20260507122019 61 21 3.5 7.0 0.00 0.00 0.00 82 1016.0
20260507121519 61 212 1.7 9.6 0.00 0.00 0.00 82 1015.8
20260507120519 61 349 3.5 7.0 0.00 0.00 0.00 82 1015.5
20260507120019 61 35 4.3 7.0 0.00 0.00 0.00 82 1015.5
20260507115519 61 55 0.9 7.0 0.00 0.00 0.00 82 1015.3
20260507114518 61 338 7.0 8.7 0.00 0.00 0.00 82 1015.3
20260507114018 61 113 1.7 12.2 0.00 0.00 0.00 82 1015.2
20260507113518 61 59 8.7 12.2 0.00 0.00 0.00 82 1015.2
20260507113018 61 333 2.6 3.5 0.00 0.00 0.00 82 1015.4
20260507112018 61 28 0.0 5.2 0.00 0.00 0.00 82 1015.2
20260507110518 61 331 0.9 9.6 0.00 0.00 0.00 82 1015.3
20260507110018 61 82 0.9 9.6 0.00 0.00 0.00 82 1015.0
20260507105518 61 5 0.9 7.0 0.00 0.00 0.00 82 1015.3
20260507105018 61 336 7.0 7.0 0.00 0.00 0.00 82 1015.4
20260507104518 61 345 2.6 5.2 0.00 0.00 0.00 81 1015.4
20260507104018 61 317 5.2 5.2 0.00 0.00 0.00 81 1015.1
20260507103518 61 337 0.9 6.1 0.00 0.00 0.00 81 1015.1
20260507103018 61 11 0.9 6.1 0.00 0.00 0.00 81 1014.8
20260507102518 61 86 0.0 3.5 0.00 0.00 0.00 81 1014.8
20260507101518 62 232 3.5 3.5 0.00 0.00 0.00 81 1014.7
20260507101018 62 273 2.6 4.3 0.00 0.00 0.00 81 1014.9
20260507100518 62 115 0.0 4.3 0.00 0.00 0.00 81 1014.7
20260507095018 62 360 3.5 5.2 0.00 0.00 0.00 81 1014.9
20260507094017 62 97 0.0 8.7 0.00 0.00 0.00 81 1014.5
20260507093517 62 40 1.7 8.7 0.00 0.00 0.00 81 1014.7
20260507093018 62 351 2.6 4.3 0.00 0.00 0.00 80 1014.5
20260507092517 62 303 3.5 4.3 0.00 0.00 0.00 80 1014.4
20260507092017 62 331 2.6 3.5 0.00 0.00 0.00 80 1014.5
20260507091517 62 101 0.9 7.0 0.00 0.00 0.00 80 1014.5
20260507091017 62 29 0.9 7.0 0.00 0.00 0.00 80 1014.3
20260507090517 62 336 1.7 3.5 0.00 0.00 0.00 80 1014.4
20260507090017 62 333 2.6 2.6 0.00 0.00 0.00 80 1014.3
20260507085517 62 355 0.0 2.6 0.00 0.00 0.00 80 1014.3
20260507085017 62 41 0.0 3.5 0.00 0.00 0.00 80 1014.4
20260507084517 62 110 0.0 3.5 0.00 0.00 0.00 80 1014.2
20260507084017 62 74 0.9 2.6 0.00 0.00 0.00 80 1014.1
20260507083516 62 86 0.0 2.6 0.00 0.00 0.00 80 1014.2
20260507082516 62 128 0.0 3.5 0.00 0.00 0.00 80 1014.3
20260507082017 62 11 1.7 2.6 0.00 0.00 0.00 80 1014.4
20260507081517 62 59 0.9 2.6 0.00 0.00 0.00 80 1014.1
20260507081016 62 310 1.7 2.6 0.00 0.00 0.00 80 1014.0
20260507080517 62 342 0.0 2.6 0.00 0.00 0.00 80 1013.9
20260507080017 62 78 0.9 2.6 0.00 0.00 0.00 80 1013.8
20260507075517 63 80 0.0 2.6 0.00 0.00 0.00 80 1014.0
20260507075016 62 46 0.0 3.5 0.00 0.00 0.00 80 1014.2
20260507074516 63 150 0.9 3.5 0.00 0.00 0.00 80 1013.8
20260507074016 63 48 1.7 5.2 0.00 0.00 0.00 80 1013.9
20260507073016 63 355 1.7 3.5 0.00 0.00 0.00 79 1013.7
20260507072016 63 187 3.5 4.3 0.00 0.00 0.00 79 1014.2
20260507071516 63 329 1.7 2.6 0.00 0.00 0.00 79 1013.7
20260507071016 63 98 2.6 3.5 0.00 0.00 0.00 79 1013.8
20260507070016 63 262 2.6 2.6 0.00 0.00 0.00 79 1014.1
20260507065516 63 110 1.7 6.1 0.00 0.00 0.00 79 1014.3
20260507065016 63 87 0.9 6.1 0.00 0.00 0.00 79 1014.0
20260507064516 63 165 0.9 5.2 0.00 0.00 0.00 79 1014.2
20260507064016 63 123 2.6 5.2 0.00 0.00 0.00 79 1014.3
20260507063516 63 103 2.6 7.8 0.00 0.00 0.00 79 1014.2
20260507063016 63 273 6.1 7.8 0.00 0.00 0.00 79 1014.0
20260507061515 63 99 5.2 10.4 0.00 0.00 0.00 78 1013.9
20260507061015 63 144 0.9 3.5 0.00 0.00 0.00 78 1014.0
20260507060516 63 114 1.7 5.2 0.00 0.00 0.00 78 1013.9
20260507060015 63 5 1.7 5.2 0.00 0.00 0.00 78 1013.8
20260507055515 64 330 0.9 3.5 0.00 0.00 0.00 78 1013.6
20260507055015 64 96 1.7 3.5 0.00 0.00 0.00 78 1013.7
20260507054515 64 113 2.6 2.6 0.00 0.00 0.00 78 1013.8
20260507054015 64 86 0.9 5.2 0.00 0.00 0.00 78 1013.9
20260507053515 64 261 1.7 5.2 0.00 0.00 0.00 78 1013.9
20260507053015 64 86 0.9 4.3 0.00 0.00 0.00 78 1013.7
20260507052515 64 94 3.5 4.3 0.00 0.00 0.00 78 1013.9
20260507051515 64 322 2.6 7.0 0.00 0.00 0.00 78 1013.4
20260507051014 64 346 1.7 4.3 0.00 0.00 0.00 78 1013.6
20260507050514 64 76 1.7 4.3 0.00 0.00 0.00 78 1013.5
20260507050014 64 207 1.7 4.3 0.00 0.00 0.00 78 1013.6
20260507045515 64 125 1.7 5.2 0.00 0.00 0.00 78 1013.7
20260507044514 64 123 0.9 4.3 0.00 0.00 0.00 78 1013.6
20260507044014 64 11 1.7 4.3 0.00 0.00 0.00 78 1013.4
20260507043514 64 96 2.6 5.2 0.00 0.00 0.00 78 1013.7
20260507043014 64 84 0.9 5.2 0.00 0.00 0.00 78 1013.7
20260507042514 64 333 1.7 5.2 0.00 0.00 0.00 78 1013.8
20260507042014 64 25 0.9 5.2 0.00 0.00 0.00 78 1013.7
20260507041514 64 325 0.9 4.3 0.00 0.00 0.00 78 1013.6
20260507041013 64 327 1.7 7.8 0.00 0.00 0.00 78 1013.5
20260507040513 64 344 1.7 7.8 0.00 0.00 0.00 78 1013.3
20260507035513 64 314 2.6 6.1 0.00 0.00 0.00 78 1013.4
20260507035013 65 339 2.6 6.1 0.00 0.00 0.00 78 1013.9
20260507034513 65 27 2.6 5.2 0.00 0.00 0.00 78 1013.7
20260507034013 65 355 3.5 6.1 0.00 0.00 0.00 78 1013.5
20260507033513 65 110 2.6 9.6 0.00 0.00 0.00 78 1013.5
20260507033013 65 355 4.3 9.6 0.00 0.00 0.00 78 1013.3
20260507031513 65 321 1.7 4.3 0.00 0.00 0.00 78 1013.5
20260507031013 65 308 1.7 7.0 0.00 0.00 0.00 78 1013.6
20260507030513 65 324 0.9 7.0 0.00 0.00 0.00 77 1013.5
20260507030013 65 214 3.5 7.0 0.00 0.00 0.00 77 1013.2
20260507025513 66 143 2.6 6.1 0.00 0.00 0.00 77 1012.9